Time,TemperatureF,DewpointF,PressureIn,WindDirection,WindDirectionDegrees,WindSpeedMPH,WindSpeedGustMPH,Humidity,HourlyPrecipIn,Conditions,Clouds,dailyrainin,SoftwareType,DateUTC
2013-09-13 00:10:00,79.9,75.0,29.60,SSW,202,7.8,-999.0,85,-99.99,,,0.00,Acu-Link.com,2013-09-13 04:10:00,
2013-09-13 00:27:00,79.9,75.7,29.59,WSW,247,4.2,-999.0,87,-99.99,,,0.00,Acu-Link.com,2013-09-13 04:27:00,
2013-09-13 00:43:00,79.9,75.7,29.58,WSW,247,5.3,-999.0,87,-99.99,,,0.00,Acu-Link.com,2013-09-13 04:43:00,
2013-09-13 00:58:00,79.9,75.7,29.58,SSW,202,9.4,-999.0,87,-99.99,,,0.00,Acu-Link.com,2013-09-13 04:58:00,
2013-09-13 01:14:00,79.9,75.3,29.58,SSW,202,7.8,-999.0,86,-99.99,,,0.00,Acu-Link.com,2013-09-13 05:14:00,
2013-09-13 01:29:00,80.1,75.5,29.58,South,180,6.3,-999.0,86,-99.99,,,0.00,Acu-Link.com,2013-09-13 05:29:00,
2013-09-13 01:44:00,80.2,74.9,29.58,SSW,202,3.7,-999.0,84,-99.99,,,0.00,Acu-Link.com,2013-09-13 05:44:00,
2013-09-13 01:59:00,80.2,75.3,29.57,SSW,202,6.8,-999.0,85,-99.99,,,0.00,Acu-Link.com,2013-09-13 05:59:00,
2013-09-13 02:14:00,80.2,75.6,29.57,SE,135,11.4,-999.0,86,-99.99,,,0.00,Acu-Link.com,2013-09-13 06:14:00,
2013-09-13 02:30:00,80.2,75.6,29.56,West,270,4.7,-999.0,86,-99.99,,,0.00,Acu-Link.com,2013-09-13 06:30:00,
2013-09-13 02:45:00,80.2,75.3,29.55,SW,225,4.7,-999.0,85,-99.99,,,0.00,Acu-Link.com,2013-09-13 06:45:00,
2013-09-13 03:01:00,80.2,75.6,29.54,West,270,4.7,-999.0,86,-99.99,,,0.00,Acu-Link.com,2013-09-13 07:01:00,
2013-09-13 03:16:00,80.1,75.2,29.54,WSW,247,8.3,-999.0,85,-99.99,,,0.00,Acu-Link.com,2013-09-13 07:16:00,
2013-09-13 03:32:00,80.1,75.5,29.53,SSW,202,4.7,-999.0,86,-99.99,,,0.00,Acu-Link.com,2013-09-13 07:32:00,
2013-09-13 03:47:00,80.1,75.5,29.54,SSW,202,4.7,-999.0,86,-99.99,,,0.00,Acu-Link.com,2013-09-13 07:47:00,
2013-09-13 04:05:00,79.9,75.7,29.53,South,180,6.8,-999.0,87,-99.99,,,0.00,Acu-Link.com,2013-09-13 08:05:00,
2013-09-13 04:21:00,79.9,75.7,29.53,South,180,6.8,-999.0,87,-99.99,,,0.00,Acu-Link.com,2013-09-13 08:21:00,
2013-09-13 04:36:00,79.9,75.3,29.53,SSW,202,3.7,-999.0,86,-99.99,,,0.00,Acu-Link.com,2013-09-13 08:36:00,
2013-09-13 04:51:00,79.7,75.5,29.53,SW,225,5.3,-999.0,87,-99.99,,,0.00,Acu-Link.com,2013-09-13 08:51:00,
2013-09-13 05:06:00,79.7,74.1,29.53,SSW,202,5.8,-999.0,83,-99.99,,,0.00,Acu-Link.com,2013-09-13 09:06:00,
2013-09-13 05:22:00,79.5,73.9,29.52,WSW,247,2.7,-999.0,83,-99.99,,,0.00,Acu-Link.com,2013-09-13 09:22:00,
2013-09-13 05:39:00,79.2,73.6,29.52,WSW,247,2.7,-999.0,83,-99.99,,,0.00,Acu-Link.com,2013-09-13 09:39:00,
2013-09-13 05:55:00,79.2,72.9,29.52,West,270,4.2,-999.0,81,-99.99,,,0.00,Acu-Link.com,2013-09-13 09:55:00,
2013-09-13 06:10:00,79.0,72.7,29.53,SSW,202,4.2,-999.0,81,-99.99,,,0.00,Acu-Link.com,2013-09-13 10:10:00,
2013-09-13 06:25:00,78.6,72.6,29.53,West,270,4.7,-999.0,82,-99.99,,,0.00,Acu-Link.com,2013-09-13 10:25:00,
2013-09-13 06:40:00,78.4,72.1,29.52,SW,225,4.2,-999.0,81,-99.99,,,0.00,Acu-Link.com,2013-09-13 10:40:00,
2013-09-13 06:58:00,78.1,71.8,29.53,SW,225,5.3,-999.0,81,-99.99,,,0.00,Acu-Link.com,2013-09-13 10:58:00,
2013-09-13 07:19:00,77.9,72.3,29.53,SSE,157,3.7,-999.0,83,-99.99,,,0.00,Acu-Link.com,2013-09-13 11:19:00,
2013-09-13 07:35:00,77.9,72.3,29.53,SW,225,3.2,-999.0,83,-99.99,,,0.00,Acu-Link.com,2013-09-13 11:35:00,
2013-09-13 07:54:00,77.7,72.5,29.53,South,180,2.7,-999.0,84,-99.99,,,0.00,Acu-Link.com,2013-09-13 11:54:00,
2013-09-13 08:10:00,77.5,72.6,29.54,West,270,1.7,-999.0,85,-99.99,,,0.00,Acu-Link.com,2013-09-13 12:10:00,
2013-09-13 08:25:00,77.7,73.2,29.54,SW,225,2.7,-999.0,86,-99.99,,,0.00,Acu-Link.com,2013-09-13 12:25:00,
2013-09-13 08:40:00,77.7,72.8,29.54,SSW,202,4.7,-999.0,85,-99.99,,,0.00,Acu-Link.com,2013-09-13 12:40:00,
2013-09-13 08:55:00,78.1,73.2,29.55,West,270,3.2,-999.0,85,-99.99,,,0.00,Acu-Link.com,2013-09-13 12:55:00,
2013-09-13 09:10:00,77.9,73.0,29.54,South,180,3.7,-999.0,85,-99.99,,,0.00,Acu-Link.com,2013-09-13 13:10:00,
2013-09-13 09:25:00,79.0,72.7,29.55,SW,225,2.7,-999.0,81,-99.99,,,0.00,Acu-Link.com,2013-09-13 13:25:00,
2013-09-13 09:40:00,80.1,72.6,29.54,West,270,2.7,-999.0,78,-99.99,,,0.00,Acu-Link.com,2013-09-13 13:40:00,
2013-09-13 09:55:00,80.6,72.7,29.55,West,270,2.2,-999.0,77,-99.99,,,0.00,Acu-Link.com,2013-09-13 13:55:00,
2013-09-13 10:10:00,81.9,73.6,29.54,East,90,1.7,-999.0,76,-99.99,,,0.00,Acu-Link.com,2013-09-13 14:10:00,
2013-09-13 10:26:00,82.9,73.3,29.54,SW,225,2.2,-999.0,73,-99.99,,,0.00,Acu-Link.com,2013-09-13 14:26:00,
2013-09-13 10:41:00,83.3,72.9,29.56,East,90,1.7,-999.0,71,-99.99,,,0.00,Acu-Link.com,2013-09-13 14:41:00,
2013-09-13 10:56:00,83.5,73.5,29.56,NE,45,1.7,-999.0,72,-99.99,,,0.00,Acu-Link.com,2013-09-13 14:56:00,
2013-09-13 11:11:00,81.7,71.4,29.53,East,90,1.1,-999.0,71,-99.99,,,0.00,Acu-Link.com,2013-09-13 15:11:00,
2013-09-13 11:26:00,82.4,71.2,29.54,ESE,112,1.7,-999.0,69,-99.99,,,0.00,Acu-Link.com,2013-09-13 15:26:00,
2013-09-13 11:41:00,82.4,71.2,29.54,SSE,157,1.1,-999.0,69,-99.99,,,0.00,Acu-Link.com,2013-09-13 15:41:00,
2013-09-13 11:56:00,82.4,71.6,29.54,NE,45,1.7,-999.0,70,-99.99,,,0.00,Acu-Link.com,2013-09-13 15:56:00,
2013-09-13 12:11:00,84.6,72.4,29.55,NE,45,2.2,-999.0,67,-99.99,,,0.00,Acu-Link.com,2013-09-13 16:11:00,
2013-09-13 12:26:00,84.2,72.5,29.53,SE,135,1.7,-999.0,68,-99.99,,,0.00,Acu-Link.com,2013-09-13 16:26:00,
2013-09-13 12:42:00,86.0,73.7,29.54,ENE,67,5.3,-999.0,67,-99.99,,,0.00,Acu-Link.com,2013-09-13 16:42:00,
2013-09-13 12:57:00,87.1,74.3,29.53,SSE,157,1.7,-999.0,66,-99.99,,,0.00,Acu-Link.com,2013-09-13 16:57:00,
2013-09-13 13:12:00,87.3,73.6,29.52,East,90,1.1,-999.0,64,-99.99,,,0.00,Acu-Link.com,2013-09-13 17:12:00,
2013-09-13 13:27:00,88.5,73.8,29.52,SE,135,2.2,-999.0,62,-99.99,,,0.00,Acu-Link.com,2013-09-13 17:27:00,
2013-09-13 13:42:00,88.5,72.3,29.52,SSW,202,2.7,-999.0,59,-99.99,,,0.00,Acu-Link.com,2013-09-13 17:42:00,
2013-09-13 13:57:00,90.1,72.8,29.52,SSE,157,2.7,-999.0,57,-99.99,,,0.00,Acu-Link.com,2013-09-13 17:57:00,
2013-09-13 14:12:00,90.7,72.8,29.51,NE,45,2.7,-999.0,56,-99.99,,,0.00,Acu-Link.com,2013-09-13 18:12:00,
2013-09-13 14:27:00,90.7,70.6,29.51,SE,135,2.2,-999.0,52,-99.99,,,0.00,Acu-Link.com,2013-09-13 18:27:00,
2013-09-13 14:42:00,90.1,72.3,29.50,SE,135,3.7,-999.0,56,-99.99,,,0.00,Acu-Link.com,2013-09-13 18:42:00,
2013-09-13 14:57:00,89.1,70.8,29.51,East,90,2.2,-999.0,55,-99.99,,,0.00,Acu-Link.com,2013-09-13 18:57:00,
2013-09-13 15:13:00,91.4,71.8,29.50,ESE,112,1.7,-999.0,53,-99.99,,,0.00,Acu-Link.com,2013-09-13 19:13:00,
2013-09-13 15:28:00,89.4,71.6,29.50,SSW,202,0.0,-999.0,56,-99.99,,,0.00,Acu-Link.com,2013-09-13 19:28:00,
2013-09-13 15:43:00,89.2,70.9,29.50,WSW,247,1.7,-999.0,55,-99.99,,,0.00,Acu-Link.com,2013-09-13 19:43:00,
2013-09-13 15:58:00,88.3,71.6,29.49,East,90,2.7,-999.0,58,-99.99,,,0.00,Acu-Link.com,2013-09-13 19:58:00,
2013-09-13 16:13:00,90.0,71.6,29.50,WSW,247,0.0,-999.0,55,-99.99,,,0.00,Acu-Link.com,2013-09-13 20:13:00,
2013-09-13 16:28:00,86.9,74.1,29.51,NNE,22,2.2,-999.0,66,-99.99,,,0.00,Acu-Link.com,2013-09-13 20:28:00,
2013-09-13 16:43:00,85.6,73.8,29.51,SSW,202,5.3,-999.0,68,-99.99,,,0.00,Acu-Link.com,2013-09-13 20:43:00,
2013-09-13 16:58:00,86.7,74.0,29.50,SSW,202,4.2,-999.0,66,-99.99,,,0.00,Acu-Link.com,2013-09-13 20:58:00,
2013-09-13 17:14:00,85.5,73.7,29.51,SSW,202,3.7,-999.0,68,-99.99,,,0.00,Acu-Link.com,2013-09-13 21:14:00,
2013-09-13 17:30:00,84.9,74.4,29.50,WSW,247,2.7,-999.0,71,-99.99,,,0.00,Acu-Link.com,2013-09-13 21:30:00,
2013-09-13 17:45:00,84.4,74.4,29.51,SW,225,2.7,-999.0,72,-99.99,,,0.00,Acu-Link.com,2013-09-13 21:45:00,
2013-09-13 18:00:00,83.8,74.2,29.50,SSW,202,3.7,-999.0,73,-99.99,,,0.00,Acu-Link.com,2013-09-13 22:00:00,
2013-09-13 18:15:00,83.3,74.1,29.50,WSW,247,3.2,-999.0,74,-99.99,,,0.00,Acu-Link.com,2013-09-13 22:15:00,
2013-09-13 18:31:00,83.3,74.1,29.51,West,270,0.0,-999.0,74,-99.99,,,0.00,Acu-Link.com,2013-09-13 22:31:00,
2013-09-13 18:46:00,82.8,74.4,29.51,NNW,337,0.0,-999.0,76,-99.99,,,0.00,Acu-Link.com,2013-09-13 22:46:00,
2013-09-13 19:01:00,82.8,74.4,29.52,North,0,1.1,-999.0,76,-99.99,,,0.00,Acu-Link.com,2013-09-13 23:01:00,
2013-09-13 19:17:00,82.8,74.4,29.53,WSW,247,0.0,-999.0,76,-99.99,,,0.00,Acu-Link.com,2013-09-13 23:17:00,
2013-09-13 19:32:00,81.5,75.1,29.54,WNW,292,1.7,-999.0,81,-99.99,,,0.00,Acu-Link.com,2013-09-13 23:32:00,
2013-09-13 19:48:00,81.3,75.3,29.54,SW,225,3.2,-999.0,82,-99.99,,,0.00,Acu-Link.com,2013-09-13 23:48:00,
2013-09-13 20:03:00,81.1,75.4,29.55,SSW,202,1.1,-999.0,83,-99.99,,,0.00,Acu-Link.com,2013-09-14 00:03:00,
2013-09-13 20:18:00,81.1,75.4,29.55,NE,45,0.0,-999.0,83,-99.99,,,0.00,Acu-Link.com,2013-09-14 00:18:00,
2013-09-13 20:33:00,80.8,75.5,29.55,NNW,337,0.0,-999.0,84,-99.99,,,0.00,Acu-Link.com,2013-09-14 00:33:00,
2013-09-13 20:48:00,80.1,74.8,29.55,ESE,112,0.0,-999.0,84,-99.99,,,0.00,Acu-Link.com,2013-09-14 00:48:00,
2013-09-13 21:03:00,79.3,75.1,29.57,East,90,0.0,-999.0,87,-99.99,,,0.00,Acu-Link.com,2013-09-14 01:03:00,
2013-09-13 21:18:00,78.6,75.1,29.56,SW,225,0.0,-999.0,89,-99.99,,,0.00,Acu-Link.com,2013-09-14 01:18:00,
2013-09-13 21:33:00,78.1,74.6,29.57,WNW,292,0.0,-999.0,89,-99.99,,,0.00,Acu-Link.com,2013-09-14 01:33:00,
2013-09-13 21:49:00,77.5,74.7,29.56,WNW,292,0.0,-999.0,91,-99.99,,,0.00,Acu-Link.com,2013-09-14 01:49:00,
2013-09-13 22:04:00,76.6,73.1,29.58,East,90,5.3,-999.0,89,-99.99,,,0.00,Acu-Link.com,2013-09-14 02:04:00,
2013-09-13 22:19:00,76.5,73.0,29.58,NNE,22,3.7,-999.0,89,-99.99,,,0.00,Acu-Link.com,2013-09-14 02:19:00,
2013-09-13 22:34:00,76.3,71.1,29.59,SSE,157,3.2,-999.0,84,-99.99,,,0.00,Acu-Link.com,2013-09-14 02:34:00,
2013-09-13 22:51:00,76.1,70.2,29.59,NE,45,2.7,-999.0,82,-99.99,,,0.00,Acu-Link.com,2013-09-14 02:51:00,
2013-09-13 23:06:00,75.6,69.3,29.59,ENE,67,5.3,-999.0,81,-99.99,,,0.00,Acu-Link.com,2013-09-14 03:06:00,
2013-09-13 23:21:00,75.4,69.2,29.58,ESE,112,1.7,-999.0,81,-99.99,,,0.00,Acu-Link.com,2013-09-14 03:21:00,
2013-09-13 23:36:00,75.2,69.0,29.58,ENE,67,5.3,-999.0,81,-99.99,,,0.00,Acu-Link.com,2013-09-14 03:36:00,
2013-09-13 23:52:00,71.2,69.7,29.60,SSE,157,2.7,-999.0,95,-99.99,,,0.03,Acu-Link.com,2013-09-14 03:52:00,